OE9XVI-6 Weather Reports


Display with metric or nautical units.
time (UTC)temp
F
wind
direction
speed
MPH
gust
MPH
rain 1hr
in
rain 24hr
in
rain mn
in
humidity
%
barometer
mb
20260507150648 58 281 0.0 2.0 0.00 0.04 0.04 69 1015.1
20260507145648 56 37 0.0 4.0 0.00 0.04 0.04 74 1015.1
20260507144648 53 26 2.0 7.0 0.00 0.04 0.04 79 1015.3
20260507143648 53 358 2.0 7.0 0.00 0.06 0.04 69 1015.1
20260507142648 57 285 0.0 2.0 0.00 0.06 0.04 66 1015.3
20260507141648 59 313 1.0 5.0 0.00 0.06 0.04 72 1015.1
20260507140648 52 310 1.0 5.0 0.00 0.06 0.04 76 1015.1
20260507135648 51 324 2.0 6.0 0.00 0.06 0.04 79 1015.3
20260507134648 52 305 1.0 7.0 0.00 0.06 0.04 75 1015.1
20260507133648 57 326 2.0 4.0 0.00 0.06 0.04 67 1015.3
20260507132648 62 57 0.0 5.0 0.00 0.06 0.04 63 1015.1
20260507131648 59 101 3.0 4.0 0.00 0.06 0.04 68 1015.1
20260507130648 58 71 0.0 3.0 0.00 0.06 0.04 69 1015.3
20260507125648 56 9 0.0 3.0 0.00 0.06 0.04 75 1015.1
20260507124648 53 323 2.0 5.0 0.00 0.06 0.04 75 1015.0
20260507123648 55 317 7.0 7.0 0.00 0.06 0.04 76 1015.0
20260507122648 53 319 0.0 5.0 0.00 0.06 0.04 82 1015.0
20260507121648 50 322 3.0 5.0 0.00 0.06 0.04 79 1014.8
20260507120648 49 327 1.0 8.0 0.00 0.06 0.04 86 1014.9
20260507115648 49 340 4.0 8.0 0.00 0.06 0.04 85 1014.8
20260507114648 50 344 3.0 4.0 0.00 0.06 0.04 85 1014.9
20260507113648 50 293 4.0 9.0 0.00 0.06 0.04 83 1014.8
20260507112648 51 298 4.0 7.0 0.00 0.06 0.04 82 1014.8
20260507111648 50 289 6.0 11.0 0.00 0.06 0.04 80 1014.8
20260507110648 51 327 4.0 8.0 0.00 0.06 0.04 78 1014.9
20260507105648 52 333 1.0 7.0 0.00 0.06 0.04 75 1014.9
20260507104648 53 298 1.0 6.0 0.00 0.06 0.04 77 1015.0
20260507103648 52 322 6.0 7.0 0.00 0.06 0.04 74 1015.0
20260507102648 51 298 4.0 7.0 0.00 0.06 0.04 76 1015.0
20260507101649 52 323 2.0 4.0 0.00 0.06 0.04 75 1015.1
20260507100648 52 310 0.0 0.0 0.00 0.06 0.04 73 1015.1
20260507095648 51 310 0.0 3.0 0.00 0.06 0.04 75 1015.1
20260507094648 51 345 2.0 5.0 0.00 0.06 0.04 72 1015.0
20260507093648 50 340 0.0 2.0 0.00 0.06 0.04 79 1015.1
20260507092648 50 310 5.0 6.0 0.00 0.06 0.04 82 1015.0
20260507091648 50 333 3.0 6.0 0.00 0.06 0.04 78 1014.9
20260507090648 50 309 1.0 6.0 0.00 0.06 0.04 81 1014.9
20260507085811 50 312 0.0 3.0 0.00 0.06 0.04 77 1014.8
20260507085648 50 312 0.0 3.0 0.00 0.06 0.04 77 1014.8
20260507084648 50 296 3.0 3.0 0.00 0.06 0.04 78 1014.7
20260507083648 49 23 0.0 4.0 0.00 0.06 0.04 77 1014.7
20260507082648 48 326 0.0 5.0 0.00 0.06 0.04 82 1014.7
20260507081648 47 322 4.0 6.0 0.00 0.06 0.04 84 1014.6
20260507080648 47 298 2.0 6.0 0.00 0.06 0.04 84 1014.6
20260507075648 47 322 0.0 4.0 0.00 0.06 0.04 82 1014.4
20260507074648 48 330 0.0 3.0 0.00 0.06 0.04 81 1014.4
20260507073648 47 300 0.0 3.0 0.00 0.06 0.04 85 1014.4
20260507072648 47 122 0.0 5.0 0.00 0.06 0.04 87 1014.4
20260507071648 46 316 0.0 2.0 0.00 0.06 0.04 87 1014.4
20260507070648 46 319 0.0 3.0 0.00 0.06 0.04 83 1014.3
20260507065648 46 132 0.0 0.0 0.00 0.06 0.04 85 1014.2
20260507064649 46 132 0.0 3.0 0.00 0.06 0.04 82 1014.0
20260507063649 46 129 1.0 3.0 0.00 0.06 0.04 84 1014.0
20260507062649 45 54 0.0 1.0 0.00 0.06 0.04 88 1013.9
20260507061649 45 52 0.0 0.0 0.00 0.06 0.04 87 1013.9
20260507060649 45 161 0.0 0.0 0.00 0.06 0.04 85 1013.7
20260507055649 45 161 0.0 1.0 0.00 0.06 0.04 86 1013.7
20260507054649 44 160 2.0 3.0 0.00 0.06 0.04 86 1013.5
20260507053649 44 142 3.0 4.0 0.00 0.06 0.04 85 1013.5
20260507052649 43 323 0.0 1.0 0.00 0.06 0.04 88 1013.5
20260507051649 43 136 1.0 3.0 0.00 0.06 0.04 86 1013.3
20260507050649 43 127 2.0 4.0 0.00 0.06 0.04 87 1013.2
20260507045649 43 213 0.0 0.0 0.00 0.06 0.04 87 1013.0
20260507044649 42 171 0.0 0.0 0.00 0.06 0.04 87 1012.9
20260507043649 42 171 0.0 0.0 0.00 0.06 0.04 88 1012.8
20260507042649 42 203 0.0 0.0 0.00 0.06 0.04 89 1012.6
20260507041649 42 203 0.0 0.0 0.00 0.06 0.04 90 1012.6
20260507040649 42 247 0.0 2.0 0.00 0.06 0.04 91 1012.6
20260507035649 42 237 1.0 2.0 0.00 0.06 0.04 92 1012.5
20260507034649 41 136 0.0 0.0 0.00 0.06 0.04 94 1012.6
20260507033649 42 136 0.0 0.0 0.00 0.06 0.04 91 1012.5
20260507032649 42 136 0.0 0.0 0.00 0.06 0.04 87 1012.3
20260507031649 42 136 0.0 0.0 0.00 0.06 0.04 88 1012.3
20260507030649 42 210 1.0 2.0 0.00 0.06 0.04 88 1012.3
20260507025649 42 181 0.0 3.0 0.00 0.06 0.04 87 1012.3
20260507024649 42 158 2.0 3.0 0.00 0.06 0.04 86 1012.2
20260507023649 42 291 0.0 0.0 0.00 0.06 0.04 86 1012.2
20260507022649 42 156 2.0 4.0 0.00 0.06 0.04 87 1012.2
20260507021649 43 111 0.0 2.0 0.00 0.06 0.04 86 1012.1
20260507020649 42 282 0.0 1.0 0.00 0.06 0.04 87 1012.2
20260507015649 43 303 0.0 0.0 0.00 0.06 0.04 88 1012.1
20260507014649 42 303 0.0 0.0 0.00 0.06 0.04 89 1012.0
20260507013649 42 303 0.0 0.0 0.00 0.06 0.04 91 1011.9
20260507012649 42 316 1.0 4.0 0.00 0.06 0.04 93 1011.9
20260507011649 42 317 3.0 5.0 0.00 0.06 0.04 93 1011.9
20260507010649 43 310 4.0 4.0 0.00 0.06 0.04 86 1011.8
20260507005649 42 293 0.0 0.0 0.00 0.06 0.04 87 1011.8
20260507004649 43 293 0.0 1.0 0.00 0.06 0.04 86 1011.8
20260507003649 43 136 0.0 0.0 0.01 0.06 0.04 85 1011.9
20260507002649 43 142 0.0 1.0 0.02 0.06 0.04 84 1011.8
20260507001649 43 171 0.0 1.0 0.02 0.06 0.04 85 1011.6
20260507000649 43 130 0.0 0.0 0.03 0.06 0.04 85 1011.8
20260506235649 44 130 0.0 0.0 0.03 0.06 0.04 84 1011.6
20260506234849 44 130 0.0 0.0 0.04 0.06 0.04 85 1011.8
20260506234649 44 130 0.0 0.0 0.04 0.06 0.04 85 1011.8
20260506233649 44 196 1.0 8.0 0.03 0.05 0.03 85 1011.8
20260506232649 44 203 0.0 6.0 0.02 0.04 0.02 85 1011.9
20260506231649 44 126 2.0 6.0 0.02 0.04 0.02 85 1011.8
20260506230649 44 149 5.0 6.0 0.01 0.03 0.01 86 1011.8
20260506225649 45 146 2.0 6.0 0.01 0.03 0.01 87 1011.8
20260506224649 45 296 0.0 2.0 0.00 0.02 0.00 86 1011.8
20260506223649 45 307 0.0 2.0 0.00 0.02 0.02 83 1011.6
20260506222649 46 151 0.0 2.0 0.00 0.02 0.02 81 1011.6
20260506221650 46 160 2.0 3.0 0.00 0.02 0.02 79 1011.6
20260506220650 46 116 0.0 0.0 0.00 0.02 0.02 80 1011.6
20260506215650 46 116 0.0 0.0 0.00 0.02 0.02 80 1011.5
20260506214650 46 63 0.0 0.0 0.00 0.02 0.02 80 1011.4
20260506213650 46 87 1.0 1.0 0.00 0.02 0.02 80 1011.3
20260506212650 46 232 0.0 0.0 0.00 0.02 0.02 79 1011.4
20260506211650 47 232 0.0 2.0 0.00 0.02 0.02 79 1011.3
20260506210650 47 87 0.0 2.0 0.00 0.02 0.02 79 1011.3
20260506205650 47 158 2.0 3.0 0.00 0.02 0.02 80 1011.3
20260506204650 46 293 0.0 0.0 0.00 0.02 0.02 82 1011.2
20260506203650 46 293 0.0 1.0 0.00 0.02 0.02 83 1011.2
20260506202650 48 319 0.0 0.0 0.00 0.02 0.02 78 1011.2
20260506201650 48 150 0.0 0.0 0.00 0.02 0.02 75 1011.1
20260506200650 49 165 0.0 0.0 0.00 0.02 0.02 74 1010.9
20260506195650 49 165 0.0 0.0 0.00 0.02 0.02 73 1010.9
20260506194650 50 165 0.0 2.0 0.00 0.02 0.02 72 1010.9
20260506193650 50 45 0.0 0.0 0.00 0.02 0.02 71 1010.7
20260506192650 50 45 0.0 1.0 0.00 0.02 0.02 69 1010.6
20260506191650 51 80 0.0 1.0 0.00 0.02 0.02 69 1010.5
20260506190650 52 146 0.0 0.0 0.00 0.02 0.02 69 1010.5
20260506185650 53 146 0.0 0.0 0.00 0.02 0.02 65 1010.1
20260506184650 55 160 0.0 3.0 0.00 0.02 0.02 62 1010.0
20260506183650 58 160 0.0 1.0 0.00 0.02 0.02 58 1009.9
20260506182650 63 147 0.0 1.0 0.00 0.02 0.02 51 1009.8
20260506181650 72 137 2.0 3.0 0.00 0.02 0.02 44 1009.7
20260506180650 75 151 0.0 0.0 0.00 0.02 0.02 44 1009.7
20260506175650 73 105 0.0 4.0 0.00 0.02 0.02 49 1009.5
20260506174650 66 306 0.0 2.0 0.00 0.02 0.02 59 1009.4
20260506173650 53 282 2.0 9.0 0.00 0.02 0.02 81 1009.4
20260506172650 48 267 0.0 4.0 0.00 0.02 0.02 86 1009.3
20260506171650 48 320 5.0 5.0 0.00 0.02 0.02 84 1009.3
20260506170650 50 336 3.0 6.0 0.00 0.02 0.02 77 1009.1
20260506165650 52 4 1.0 4.0 0.00 0.02 0.02 67 1009.1
20260506164650 53 286 0.0 6.0 0.00 0.02 0.02 71 1009.0
20260506163650 59 324 7.0 9.0 0.00 0.02 0.02 46 1008.7
20260506162650 70 167 0.0 3.0 0.00 0.02 0.02 44 1008.7
20260506161650 64 188 0.0 5.0 0.00 0.02 0.02 76 1008.7
20260506160650 50 133 3.0 7.0 0.01 0.02 0.02 81 1008.6
20260506155650 47 225 3.0 6.0 0.02 0.02 0.02 84 1008.6
20260506154650 46 261 0.0 6.0 0.02 0.02 0.02 83 1008.7
20260506153650 46 334 4.0 8.0 0.02 0.02 0.02 83 1008.7
20260506152650 46 136 5.0 13.0 0.02 0.02 0.02 85 1008.5
20260506151650 45 157 8.0 11.0 0.02 0.02 0.02 86 1008.3